Weather History for Belgrade Nikola Tesla, Serbia

Change the Weather History Date:

Wednesday, August 1, 2012

  Actual Average Record
Temperature  
Mean Temperature 76 °F -  
Max Temperature 88 °F 79 °F - ()
Min Temperature 63 °F 60 °F - ()
Cooling Degree Days 10    
Growing Degree Days 26 (Base 50)    
Moisture  
Dew Point 59 °F    
Average Humidity 54    
Maximum Humidity 83    
Minimum Humidity 25    
Precipitation  
Precipitation 0.00 in - - ()
Sea Level Pressure  
Sea Level Pressure 29.98 in    
Wind  
Wind Speed 6 mph ()    
Max Wind Speed 13 mph    
Max Gust Speed -    
Visibility 14.0 miles    
Events      
T = Trace of Precipitation, MM = Missing Value Source: Averaged Metar Reports

Daily Weather History Graph

Daily Weather History Graph

Search for Another Location

Airport:

Trip Planner

Search our weather history database for the weather conditions in past years. The results will help you decide how hot, cold, wet, or windy it might be!

Date:

Astronomy

Aug. 01, 2012 Rise Set
Actual Time 5:24 AM CEST 8:04 PM CEST
Civil Twilight 4:51 AM CEST 8:38 PM CEST
Nautical Twilight 4:08 AM CEST 9:20 PM CEST
Astronomical Twilight 3:20 AM CEST 10:08 PM CEST
Moon 7:20 PM CEST (8/1) 4:33 AM CEST (8/1)
Length of Visible Light 15h 46m
Length of Day
14h 39m
Waxing Gibbous, 99% of the Moon is Illuminated
Aug 1
Waxing Gibbous
Aug 2
Full
Aug 9
Last Quarter
Aug 17
New
Aug 24
First Quarter

Hourly Weather History & Observations

Time (CEST) Temp. Heat Index Dew Point Humidity Pressure Visibility Wind Dir Wind Speed Gust Speed Precip Events Conditions
12:00 AM 69.8 °F - 60.8 °F 73% 29.98 in - NW 8.1 mph - N/A   Clear
12:30 AM 69.8 °F - 60.8 °F 73% 29.98 in - NW 5.8 mph - N/A   Clear
1:00 AM 68.0 °F - 60.8 °F 78% 29.98 in - NNW 6.9 mph - N/A   Clear
1:30 AM 68.0 °F - 59.0 °F 73% 29.98 in - NNW 5.8 mph - N/A   Clear
2:00 AM 66.2 °F - 59.0 °F 78% 29.98 in - NNW 5.8 mph - N/A   Clear
2:30 AM 68.0 °F - 59.0 °F 73% 29.98 in - NNW 6.9 mph - N/A   Clear
3:00 AM 68.0 °F - 57.2 °F 68% 29.98 in - North 5.8 mph - N/A   Clear
3:30 AM 68.0 °F - 57.2 °F 68% 29.98 in - North 5.8 mph - N/A   Clear
4:00 AM 66.2 °F - 57.2 °F 73% 29.98 in - SE 3.5 mph - N/A   Clear
4:30 AM 66.2 °F - 57.2 °F 73% 29.98 in - WSW 3.5 mph - N/A   Clear
5:00 AM 65 °F - 58 °F 73% 29.99 in 12 mi SW 4.5 mph - -   Scattered Clouds
5:00 AM 64.4 °F - 59.0 °F 83% 29.98 in - SW 5.8 mph - N/A   Clear
5:30 AM 64.4 °F - 59.0 °F 83% 29.98 in - WSW 8.1 mph - N/A   Clear
6:00 AM 64.4 °F - 59.0 °F 83% 30.01 in - WSW 6.9 mph - N/A   Clear
6:30 AM 64.4 °F - 59.0 °F 83% 30.01 in - West 4.6 mph - N/A   Clear
7:00 AM 68.0 °F - 59.0 °F 73% 30.01 in - West 5.8 mph - N/A   Clear
7:30 AM 68.0 °F - 59.0 °F 73% 30.01 in - West 5.8 mph - N/A   Clear
8:00 AM 71 °F - 59 °F 57% 30.01 in 12 mi West 4.5 mph - -  
8:00 AM 71.6 °F - 59.0 °F 64% 30.01 in - WNW 5.8 mph - N/A   Clear
8:30 AM 73.4 °F - 59.0 °F 61% 30.01 in - WNW 5.8 mph - N/A   Clear
9:00 AM 75.2 °F - 59.0 °F 57% 30.01 in - WNW 5.8 mph - N/A   Clear
9:30 AM 77.0 °F - 60.8 °F 57% 30.01 in - WNW 5.8 mph - N/A   Clear
10:00 AM 78.8 °F - 60.8 °F 54% 30.01 in - West 8.1 mph - N/A   Clear
10:30 AM 80.6 °F 81.5 °F 60.8 °F 51% 30.01 in - NW 5.8 mph - N/A   Clear
11:00 AM 81 °F - 62 °F 42% 30.01 in 12 mi NW 4.5 mph - -  
11:00 AM 82.4 °F 83.4 °F 62.6 °F 51% 30.01 in - WNW 6.9 mph - N/A   Clear
11:30 AM 82.4 °F 82.9 °F 60.8 °F 48% 30.01 in - NNW 4.6 mph - N/A   Clear
12:00 PM 84.2 °F 84.4 °F 60.8 °F 45% 30.01 in - NNW 10.4 mph - N/A   Clear
12:30 PM 84.2 °F 83.8 °F 59.0 °F 42% 30.01 in - NNW 9.2 mph - N/A   Clear
1:00 PM 86.0 °F 85.4 °F 59.0 °F 40% 29.98 in - NNW 8.1 mph - N/A   Clear
1:30 PM 86.0 °F 86.1 °F 60.8 °F 43% 29.98 in - North 9.2 mph - N/A   Clear
2:00 PM 86 °F - 59 °F 30% 29.96 in 12 mi North 8.9 mph - -   Mostly Cloudy
2:00 PM 86.0 °F 85.4 °F 59.0 °F 40% 29.98 in - North 10.4 mph - N/A   Clear
2:30 PM 86.0 °F 85.4 °F 59.0 °F 40% 29.98 in - North 9.2 mph - N/A   Clear
3:00 PM 87.8 °F 87.1 °F 59.0 °F 38% 29.95 in - North 10.4 mph - N/A   Clear
3:30 PM 87.8 °F 87.1 °F 59.0 °F 38% 29.95 in - North 10.4 mph - N/A   Clear
4:00 PM 89.6 °F 88.9 °F 59.0 °F 36% 29.95 in - NNE 12.7 mph - N/A   Clear
4:30 PM 86.0 °F 84.9 °F 57.2 °F 37% 29.95 in - North 11.5 mph - N/A   Clear
5:00 PM 88 °F - 57 °F 25% 29.94 in 12 mi NNE 11.2 mph - -   Scattered Clouds
5:00 PM 87.8 °F 86.5 °F 57.2 °F 35% 29.95 in - NNE 11.5 mph - N/A   Clear
5:30 PM 87.8 °F 86.1 °F 55.4 °F 33% 29.95 in - NNE 10.4 mph - N/A   Clear
6:00 PM 87.8 °F 85.7 °F 53.6 °F 31% 29.95 in - North 9.2 mph - N/A   Clear
6:30 PM 87.8 °F 86.1 °F 55.4 °F 33% 29.95 in - North 9.2 mph - N/A   Clear
7:00 PM 86.0 °F 84.5 °F 55.4 °F 35% 29.95 in - North 6.9 mph - N/A   Clear
7:30 PM 86.0 °F 84.5 °F 55.4 °F 35% 29.95 in - North 5.8 mph - N/A   Clear
8:00 PM 83 °F - 56 °F 30% 29.94 in 19 mi ENE 2.2 mph - -   Clear
8:00 PM 82.4 °F 82.0 °F 57.2 °F 42% 29.95 in - East 3.5 mph - N/A   Clear
8:30 PM 82.4 °F 82.0 °F 57.2 °F 42% 29.95 in - ENE 2.3 mph - N/A   Clear
9:00 PM 78.8 °F - 57.2 °F 47% 29.95 in - Calm Calm - N/A   Clear
9:30 PM 78.8 °F - 57.2 °F 47% 29.98 in - Calm Calm - N/A   Clear
10:00 PM 77.0 °F - 57.2 °F 50% 29.95 in - Variable 2.3 mph - N/A   Clear
10:30 PM 75.2 °F - 57.2 °F 53% 29.95 in - East 3.5 mph - N/A   Clear
11:00 PM 75 °F - 58 °F 46% 29.96 in 19 mi ESE 2.2 mph - -   Scattered Clouds
11:00 PM 75.2 °F - 59.0 °F 57% 29.95 in - ESE 3.5 mph - N/A   Clear
11:30 PM 73.4 °F - 59.0 °F 61% 29.95 in - Variable 2.3 mph - N/A   Clear